Location: Burgerwiesen
(48.6500°N, 15.6167°E)
Time: 05:16:15
(UTC+00:00)

Cosmos 1408 - Pass Details

Date: 09 April 2020
Orbit: 470 x 494 km, 82.6° (Epoch: 01 June)

Event Time Altitude Azimuth Distance (km) Brightness Sun altitude
Rises 19:06:57 0° 4° (N) 2,565 6.6 -14.0°
Reaches altitude 10° 19:09:35 10° 24° (NNE) 1,683 5.4 -14.4°
Maximum altitude 19:12:10 18° 69° (ENE) 1,271 4.3 -14.8°
Enters shadow 19:12:24 18° 74° (ENE) 1,274 4.3 -14.8°
